Time,TemperatureF,DewpointF,PressureIn,WindDirection,WindDirectionDegrees,WindSpeedMPH,WindSpeedGustMPH,Humidity,HourlyPrecipIn,Conditions,Clouds,dailyrainin,SoftwareType,DateUTC
2013-04-05 00:00:00,39.8,22.6,29.76,North,0,0.0,0.0,50,0.00,,,0.00,WUHU216HW,2013-04-05 04:00:00,
2013-04-05 00:01:00,39.8,22.6,29.76,North,0,0.0,0.0,50,0.00,,,0.00,WUHU216HW,2013-04-05 04:01:00,
2013-04-05 00:06:00,39.6,22.5,29.76,North,0,0.0,0.0,50,0.00,,,0.00,WUHU216HW,2013-04-05 04:06:00,
2013-04-05 00:11:00,39.4,22.8,29.76,North,0,0.0,0.0,51,0.00,,,0.00,WUHU216HW,2013-04-05 04:11:00,
2013-04-05 00:16:00,39.2,23.4,29.76,North,0,0.0,0.0,53,0.00,,,0.00,WUHU216HW,2013-04-05 04:16:00,
2013-04-05 00:21:00,39.2,23.9,29.76,North,0,0.0,0.0,54,0.00,,,0.00,WUHU216HW,2013-04-05 04:21:00,
2013-04-05 00:27:00,39.4,23.6,29.76,North,0,0.0,0.0,53,0.00,,,0.00,WUHU216HW,2013-04-05 04:27:00,
2013-04-05 00:32:00,39.2,23.9,29.75,North,0,0.0,0.0,54,0.00,,,0.00,WUHU216HW,2013-04-05 04:32:00,
2013-04-05 00:37:00,39.1,23.7,29.75,North,0,0.0,0.0,54,0.00,,,0.00,WUHU216HW,2013-04-05 04:37:00,
2013-04-05 00:42:00,38.9,23.6,29.75,North,0,0.0,0.0,54,0.00,,,0.00,WUHU216HW,2013-04-05 04:42:00,
2013-04-05 00:47:00,38.9,23.6,29.75,North,0,0.0,0.0,54,0.00,,,0.00,WUHU216HW,2013-04-05 04:47:00,
2013-04-05 00:52:00,38.9,23.9,29.75,North,0,0.0,0.0,55,0.00,,,0.00,WUHU216HW,2013-04-05 04:52:00,
2013-04-05 00:57:00,38.7,23.9,29.74,North,0,0.0,0.0,55,0.00,,,0.00,WUHU216HW,2013-04-05 04:57:00,
2013-04-05 01:02:00,38.7,23.9,29.74,North,0,0.0,0.0,55,0.00,,,0.00,WUHU216HW,2013-04-05 05:02:00,
2013-04-05 01:07:00,38.5,23.2,29.74,North,0,0.0,0.0,54,0.00,,,0.00,WUHU216HW,2013-04-05 05:07:00,
2013-04-05 01:12:00,38.3,23.0,29.74,North,0,0.0,0.0,54,0.00,,,0.00,WUHU216HW,2013-04-05 05:12:00,
2013-04-05 01:17:00,38.2,22.9,29.74,North,0,0.0,0.0,54,0.00,,,0.00,WUHU216HW,2013-04-05 05:17:00,
2013-04-05 01:23:00,38.0,22.8,29.74,North,0,0.0,0.0,54,0.00,,,0.00,WUHU216HW,2013-04-05 05:23:00,
2013-04-05 01:28:00,37.8,22.6,29.74,North,0,0.0,0.0,54,0.00,,,0.00,WUHU216HW,2013-04-05 05:28:00,
2013-04-05 01:33:00,37.6,22.9,29.74,North,0,0.0,0.0,55,0.00,,,0.00,WUHU216HW,2013-04-05 05:33:00,
2013-04-05 01:38:00,37.4,22.7,29.73,North,0,0.0,0.0,55,0.00,,,0.00,WUHU216HW,2013-04-05 05:38:00,
2013-04-05 01:43:00,37.3,23.0,29.73,North,0,0.0,0.0,56,0.00,,,0.00,WUHU216HW,2013-04-05 05:43:00,
2013-04-05 01:48:00,37.1,22.8,29.73,North,0,0.0,0.0,56,0.00,,,0.00,WUHU216HW,2013-04-05 05:48:00,
2013-04-05 01:53:00,37.1,22.8,29.73,North,0,0.0,0.0,56,0.00,,,0.00,WUHU216HW,2013-04-05 05:53:00,
2013-04-05 01:58:00,36.9,23.0,29.72,North,0,0.0,0.0,57,0.00,,,0.00,WUHU216HW,2013-04-05 05:58:00,
2013-04-05 02:03:00,36.9,23.0,29.72,North,0,0.0,0.0,57,0.00,,,0.00,WUHU216HW,2013-04-05 06:03:00,
2013-04-05 02:08:00,36.7,22.9,29.72,North,0,0.0,0.0,57,0.00,,,0.00,WUHU216HW,2013-04-05 06:08:00,
2013-04-05 02:13:00,36.5,23.1,29.72,North,0,0.0,0.0,58,0.00,,,0.00,WUHU216HW,2013-04-05 06:13:00,
2013-04-05 02:19:00,36.5,23.1,29.72,North,0,0.0,0.0,58,0.00,,,0.00,WUHU216HW,2013-04-05 06:19:00,
2013-04-05 02:24:00,36.4,23.4,29.71,North,0,0.0,0.0,59,0.00,,,0.00,WUHU216HW,2013-04-05 06:24:00,
2013-04-05 02:29:00,36.4,23.9,29.71,North,0,0.0,0.0,60,0.00,,,0.00,WUHU216HW,2013-04-05 06:29:00,
2013-04-05 02:34:00,36.4,23.9,29.71,North,0,0.0,0.0,60,0.00,,,0.00,WUHU216HW,2013-04-05 06:34:00,
2013-04-05 02:39:00,36.2,23.7,29.70,North,0,0.0,0.0,60,0.00,,,0.00,WUHU216HW,2013-04-05 06:39:00,
2013-04-05 02:44:00,36.2,23.7,29.70,North,0,0.0,0.0,60,0.00,,,0.00,WUHU216HW,2013-04-05 06:44:00,
2013-04-05 02:49:00,36.0,23.6,29.70,North,0,0.0,0.0,60,0.00,,,0.00,WUHU216HW,2013-04-05 06:49:00,
2013-04-05 02:54:00,36.0,23.6,29.70,North,0,0.0,0.0,60,0.00,,,0.00,WUHU216HW,2013-04-05 06:54:00,
2013-04-05 02:59:00,35.8,24.1,29.70,North,0,0.0,0.0,62,0.00,,,0.00,WUHU216HW,2013-04-05 06:59:00,
2013-04-05 03:04:00,35.8,24.1,29.70,North,0,0.0,0.0,62,0.00,,,0.00,WUHU216HW,2013-04-05 07:04:00,
2013-04-05 03:09:00,35.6,23.6,29.70,North,0,0.0,0.0,61,0.00,,,0.00,WUHU216HW,2013-04-05 07:09:00,
2013-04-05 03:15:00,35.5,23.8,29.70,North,0,0.0,0.0,62,0.00,,,0.00,WUHU216HW,2013-04-05 07:15:00,
2013-04-05 03:20:00,35.3,23.6,29.70,North,0,0.0,0.0,62,0.00,,,0.00,WUHU216HW,2013-04-05 07:20:00,
2013-04-05 03:25:00,35.1,23.4,29.70,North,0,0.0,0.0,62,0.00,,,0.00,WUHU216HW,2013-04-05 07:25:00,
2013-04-05 03:30:00,35.1,23.4,29.70,North,0,0.0,0.0,62,0.00,,,0.00,WUHU216HW,2013-04-05 07:30:00,
2013-04-05 03:35:00,34.9,23.2,29.70,North,0,0.0,0.0,62,0.00,,,0.00,WUHU216HW,2013-04-05 07:35:00,
2013-04-05 03:40:00,34.9,23.6,29.69,North,0,0.0,0.0,63,0.00,,,0.00,WUHU216HW,2013-04-05 07:40:00,
2013-04-05 03:45:00,34.9,23.2,29.69,North,0,0.0,0.0,62,0.00,,,0.00,WUHU216HW,2013-04-05 07:45:00,
2013-04-05 03:50:00,34.7,23.4,29.70,North,0,0.0,0.0,63,0.00,,,0.00,WUHU216HW,2013-04-05 07:50:00,
2013-04-05 03:55:00,34.7,23.4,29.70,North,0,0.0,0.0,63,0.00,,,0.00,WUHU216HW,2013-04-05 07:55:00,
2013-04-05 04:00:00,34.7,23.4,29.69,North,0,0.0,0.0,63,0.00,,,0.00,WUHU216HW,2013-04-05 08:00:00,
2013-04-05 04:05:00,34.7,23.4,29.69,North,0,0.0,0.0,63,0.00,,,0.00,WUHU216HW,2013-04-05 08:05:00,
2013-04-05 04:10:00,34.6,23.2,29.69,North,0,0.0,0.0,63,0.00,,,0.00,WUHU216HW,2013-04-05 08:10:00,
2013-04-05 04:15:00,34.6,23.6,29.69,North,0,0.0,0.0,64,0.00,,,0.00,WUHU216HW,2013-04-05 08:15:00,
2013-04-05 04:21:00,34.4,23.4,29.69,North,0,0.0,0.0,64,0.00,,,0.00,WUHU216HW,2013-04-05 08:21:00,
2013-04-05 04:26:00,34.2,23.2,29.69,North,0,0.0,0.0,64,0.00,,,0.00,WUHU216HW,2013-04-05 08:26:00,
2013-04-05 04:31:00,34.2,23.2,29.69,North,0,0.0,0.0,64,0.00,,,0.00,WUHU216HW,2013-04-05 08:31:00,
2013-04-05 04:36:00,34.0,23.0,29.69,North,0,0.0,0.0,64,0.00,,,0.00,WUHU216HW,2013-04-05 08:36:00,
2013-04-05 04:41:00,34.0,23.4,29.69,North,0,0.0,0.0,65,0.00,,,0.00,WUHU216HW,2013-04-05 08:41:00,
2013-04-05 04:47:00,33.8,23.2,29.69,North,0,0.0,0.0,65,0.00,,,0.00,WUHU216HW,2013-04-05 08:47:00,
2013-04-05 04:52:00,33.7,23.0,29.69,North,0,0.0,0.0,65,0.00,,,0.00,WUHU216HW,2013-04-05 08:52:00,
2013-04-05 04:57:00,33.5,22.9,29.69,North,0,0.0,0.0,65,0.00,,,0.00,WUHU216HW,2013-04-05 08:57:00,
2013-04-05 05:02:00,33.5,23.2,29.69,North,0,0.0,0.0,66,0.00,,,0.00,WUHU216HW,2013-04-05 09:02:00,
2013-04-05 05:07:00,33.5,23.2,29.68,North,0,0.0,0.0,66,0.00,,,0.00,WUHU216HW,2013-04-05 09:07:00,
2013-04-05 05:12:00,33.5,23.6,29.68,North,0,0.0,0.0,67,0.00,,,0.00,WUHU216HW,2013-04-05 09:12:00,
2013-04-05 05:17:00,33.3,23.5,29.68,North,0,0.0,0.0,67,0.00,,,0.00,WUHU216HW,2013-04-05 09:17:00,
2013-04-05 05:22:00,33.5,23.6,29.68,North,0,0.0,0.0,67,0.00,,,0.00,WUHU216HW,2013-04-05 09:22:00,
2013-04-05 05:27:00,33.5,24.3,29.67,North,0,0.0,0.0,69,0.00,,,0.00,WUHU216HW,2013-04-05 09:27:00,
2013-04-05 05:32:00,33.5,24.3,29.67,North,0,0.0,0.0,69,0.00,,,0.00,WUHU216HW,2013-04-05 09:32:00,
2013-04-05 05:37:00,33.5,24.3,29.67,North,0,0.0,0.0,69,0.00,,,0.00,WUHU216HW,2013-04-05 09:37:00,
2013-04-05 06:00:00,34.2,26.0,29.67,North,0,0.0,0.0,72,0.00,,,0.00,WUHU216HW,2013-04-05 10:00:00,
2013-04-05 06:05:00,34.2,25.8,29.67,North,0,0.0,0.0,71,0.00,,,0.00,WUHU216HW,2013-04-05 10:05:00,
2013-04-05 06:10:00,34.2,25.8,29.67,North,0,0.0,0.0,71,0.00,,,0.00,WUHU216HW,2013-04-05 10:10:00,
2013-04-05 06:15:00,34.2,26.4,29.67,North,0,0.0,0.0,73,0.00,,,0.00,WUHU216HW,2013-04-05 10:15:00,
2013-04-05 06:20:00,34.2,26.4,29.67,North,0,0.0,0.0,73,0.00,,,0.00,WUHU216HW,2013-04-05 10:20:00,
2013-04-05 06:25:00,34.2,26.4,29.67,North,0,0.0,0.0,73,0.00,,,0.00,WUHU216HW,2013-04-05 10:25:00,
2013-04-05 06:30:00,34.4,26.6,29.68,North,0,0.0,0.0,73,0.00,,,0.00,WUHU216HW,2013-04-05 10:30:00,
2013-04-05 06:35:00,34.4,26.6,29.66,North,0,0.0,0.0,73,0.00,,,0.00,WUHU216HW,2013-04-05 10:35:00,
2013-04-05 06:40:00,34.2,26.4,29.67,North,0,0.0,0.0,73,0.00,,,0.00,WUHU216HW,2013-04-05 10:40:00,
2013-04-05 06:45:00,34.2,26.6,29.67,North,0,0.0,0.0,74,0.00,,,0.00,WUHU216HW,2013-04-05 10:45:00,
2013-04-05 06:50:00,34.2,26.6,29.67,North,0,0.0,0.0,74,0.00,,,0.00,WUHU216HW,2013-04-05 10:50:00,
2013-04-05 06:56:00,34.2,26.4,29.67,North,0,0.0,0.0,73,0.00,,,0.00,WUHU216HW,2013-04-05 10:56:00,
2013-04-05 07:01:00,34.2,26.4,29.67,North,0,0.0,0.0,73,0.00,,,0.00,WUHU216HW,2013-04-05 11:01:00,
2013-04-05 07:06:00,34.2,26.4,29.67,North,0,0.0,0.0,73,0.00,,,0.00,WUHU216HW,2013-04-05 11:06:00,
2013-04-05 07:11:00,34.2,26.4,29.67,North,0,0.0,0.0,73,0.00,,,0.00,WUHU216HW,2013-04-05 11:11:00,
2013-04-05 07:17:00,34.2,26.4,29.67,North,0,0.0,0.0,73,0.00,,,0.00,WUHU216HW,2013-04-05 11:17:00,
2013-04-05 07:22:00,34.2,26.4,29.67,North,0,0.0,0.0,73,0.00,,,0.00,WUHU216HW,2013-04-05 11:22:00,
2013-04-05 07:27:00,34.4,26.6,29.68,North,0,0.0,0.0,73,0.00,,,0.00,WUHU216HW,2013-04-05 11:27:00,
2013-04-05 07:32:00,34.4,26.6,29.67,North,0,0.0,0.0,73,0.00,,,0.00,WUHU216HW,2013-04-05 11:32:00,
2013-04-05 07:37:00,34.6,26.7,29.67,North,0,0.0,0.0,73,0.00,,,0.00,WUHU216HW,2013-04-05 11:37:00,
2013-04-05 07:42:00,34.7,26.9,29.66,North,0,0.0,0.0,73,0.00,,,0.00,WUHU216HW,2013-04-05 11:42:00,
2013-04-05 07:47:00,34.9,27.1,29.66,North,0,0.0,0.0,73,0.00,,,0.00,WUHU216HW,2013-04-05 11:47:00,
2013-04-05 07:52:00,34.9,27.1,29.66,North,0,0.0,0.0,73,0.00,,,0.00,WUHU216HW,2013-04-05 11:52:00,
2013-04-05 07:57:00,35.1,27.3,29.66,North,0,0.0,0.0,73,0.00,,,0.00,WUHU216HW,2013-04-05 11:57:00,
2013-04-05 08:02:00,35.3,27.5,29.66,North,0,0.0,0.0,73,0.00,,,0.00,WUHU216HW,2013-04-05 12:02:00,
2013-04-05 08:07:00,35.5,27.6,29.66,North,0,0.0,0.0,73,0.00,,,0.00,WUHU216HW,2013-04-05 12:07:00,
2013-04-05 08:12:00,35.6,27.8,29.65,North,0,0.0,0.0,73,0.00,,,0.00,WUHU216HW,2013-04-05 12:12:00,
2013-04-05 08:17:00,35.8,28.0,29.66,North,0,0.0,0.0,73,0.00,,,0.00,WUHU216HW,2013-04-05 12:17:00,
2013-04-05 08:23:00,36.0,28.2,29.66,North,0,0.0,0.0,73,0.00,,,0.00,WUHU216HW,2013-04-05 12:23:00,
2013-04-05 08:28:00,36.4,28.2,29.65,North,0,0.0,0.0,72,0.00,,,0.00,WUHU216HW,2013-04-05 12:28:00,
2013-04-05 08:33:00,36.5,28.4,29.65,North,0,0.0,0.0,72,0.00,,,0.00,WUHU216HW,2013-04-05 12:33:00,
2013-04-05 08:38:00,36.9,28.7,29.65,North,0,0.0,0.0,72,0.00,,,0.00,WUHU216HW,2013-04-05 12:38:00,
2013-04-05 08:43:00,37.3,28.8,29.65,North,0,0.0,0.0,71,0.00,,,0.00,WUHU216HW,2013-04-05 12:43:00,
2013-04-05 08:48:00,37.8,29.3,29.65,North,0,0.0,0.0,71,0.00,,,0.00,WUHU216HW,2013-04-05 12:48:00,
2013-04-05 08:53:00,37.8,29.3,29.65,North,0,0.0,0.0,71,0.00,,,0.00,WUHU216HW,2013-04-05 12:53:00,
2013-04-05 09:00:00,39.2,29.9,29.65,North,0,0.0,0.0,69,0.00,,,0.00,WUHU216HW,2013-04-05 13:00:00,
2013-04-05 09:05:00,40.0,30.3,29.64,North,0,0.0,0.0,68,0.00,,,0.00,WUHU216HW,2013-04-05 13:05:00,
2013-04-05 09:10:00,40.5,30.3,29.64,North,0,0.0,0.0,67,0.00,,,0.00,WUHU216HW,2013-04-05 13:10:00,
2013-04-05 09:15:00,41.4,30.5,29.63,North,0,0.0,0.0,65,0.00,,,0.00,WUHU216HW,2013-04-05 13:15:00,
2013-04-05 09:20:00,41.9,31.0,29.63,North,0,0.0,0.0,65,0.00,,,0.00,WUHU216HW,2013-04-05 13:20:00,
2013-04-05 09:25:00,42.7,31.3,29.63,North,0,0.0,0.0,64,0.00,,,0.00,WUHU216HW,2013-04-05 13:25:00,
2013-04-05 09:30:00,43.2,31.1,29.62,North,0,0.0,0.0,62,0.00,,,0.00,WUHU216HW,2013-04-05 13:30:00,
2013-04-05 09:35:00,43.6,31.4,29.62,North,0,0.0,0.0,62,0.00,,,0.00,WUHU216HW,2013-04-05 13:35:00,
2013-04-05 09:40:00,43.6,31.4,29.62,North,0,0.0,0.0,62,0.00,,,0.00,WUHU216HW,2013-04-05 13:40:00,
2013-04-05 10:00:00,47.9,32.9,29.61,North,0,0.0,0.0,56,0.00,,,0.00,WUHU216HW,2013-04-05 14:00:00,
2013-04-05 10:05:00,48.1,32.6,29.62,North,0,0.0,0.0,55,0.00,,,0.00,WUHU216HW,2013-04-05 14:05:00,
2013-04-05 10:10:00,48.6,32.1,29.61,North,0,0.0,0.0,53,0.00,,,0.00,WUHU216HW,2013-04-05 14:10:00,
2013-04-05 10:15:00,48.6,31.7,29.61,North,0,0.0,0.0,52,0.00,,,0.00,WUHU216HW,2013-04-05 14:15:00,
2013-04-05 10:20:00,49.3,31.0,29.61,North,0,0.0,0.0,49,0.00,,,0.00,WUHU216HW,2013-04-05 14:20:00,
2013-04-05 10:25:00,50.0,30.5,29.61,North,0,0.0,0.0,47,0.00,,,0.00,WUHU216HW,2013-04-05 14:25:00,
2013-04-05 10:30:00,50.0,30.0,29.60,North,0,0.0,0.0,46,0.00,,,0.00,WUHU216HW,2013-04-05 14:30:00,
2013-04-05 10:35:00,50.0,28.4,29.60,North,0,0.0,0.0,43,0.00,,,0.00,WUHU216HW,2013-04-05 14:35:00,
2013-04-05 10:40:00,50.2,27.9,29.60,North,0,0.0,0.0,42,0.00,,,0.00,WUHU216HW,2013-04-05 14:40:00,
2013-04-05 10:45:00,50.8,27.8,29.59,North,0,0.0,0.0,41,0.00,,,0.00,WUHU216HW,2013-04-05 14:45:00,
2013-04-05 10:50:00,51.1,27.6,29.59,North,0,0.0,0.0,40,0.00,,,0.00,WUHU216HW,2013-04-05 14:50:00,
2013-04-05 10:55:00,51.5,26.6,29.59,North,0,0.0,0.0,38,0.00,,,0.00,WUHU216HW,2013-04-05 14:55:00,
2013-04-05 11:01:00,51.8,28.3,29.59,North,0,0.0,0.0,40,0.00,,,0.00,WUHU216HW,2013-04-05 15:01:00,
2013-04-05 11:06:00,52.9,29.3,29.59,North,0,0.0,0.0,40,0.00,,,0.00,WUHU216HW,2013-04-05 15:06:00,
2013-04-05 11:12:00,52.9,27.9,29.58,North,0,0.0,0.0,38,0.00,,,0.00,WUHU216HW,2013-04-05 15:12:00,
2013-04-05 11:17:00,52.9,27.9,29.58,North,0,0.0,0.0,38,0.00,,,0.00,WUHU216HW,2013-04-05 15:17:00,
2013-04-05 11:22:00,54.0,28.2,29.58,North,0,0.0,0.0,37,0.00,,,0.00,WUHU216HW,2013-04-05 15:22:00,
2013-04-05 11:27:00,54.2,27.6,29.57,North,0,0.0,0.0,36,0.00,,,0.00,WUHU216HW,2013-04-05 15:27:00,
2013-04-05 11:32:00,54.5,27.9,29.57,North,0,0.0,0.0,36,0.00,,,0.00,WUHU216HW,2013-04-05 15:32:00,
2013-04-05 11:37:00,54.7,28.1,29.57,North,0,0.0,0.0,36,0.00,,,0.00,WUHU216HW,2013-04-05 15:37:00,
2013-04-05 11:42:00,55.3,26.5,29.57,North,0,0.0,0.0,33,0.00,,,0.00,WUHU216HW,2013-04-05 15:42:00,
2013-04-05 11:47:00,55.6,26.7,29.56,North,0,0.0,0.0,33,0.00,,,0.00,WUHU216HW,2013-04-05 15:47:00,
2013-04-05 11:52:00,56.5,29.0,29.56,North,0,0.0,0.0,35,0.00,,,0.00,WUHU216HW,2013-04-05 15:52:00,
2013-04-05 11:57:00,57.1,28.7,29.56,North,0,0.0,0.0,34,0.00,,,0.00,WUHU216HW,2013-04-05 15:57:00,
2013-04-05 12:02:00,57.2,27.6,29.55,North,0,0.0,0.0,32,0.00,,,0.00,WUHU216HW,2013-04-05 16:02:00,
2013-04-05 12:07:00,57.2,26.8,29.55,North,0,0.0,0.0,31,0.00,,,0.00,WUHU216HW,2013-04-05 16:07:00,
2013-04-05 12:12:00,57.4,27.0,29.54,North,0,0.0,0.0,31,0.00,,,0.00,WUHU216HW,2013-04-05 16:12:00,
2013-04-05 12:18:00,58.0,28.2,29.54,North,0,0.0,0.0,32,0.00,,,0.00,WUHU216HW,2013-04-05 16:18:00,
2013-04-05 12:23:00,58.5,27.9,29.53,North,0,0.0,0.0,31,0.00,,,0.00,WUHU216HW,2013-04-05 16:23:00,
2013-04-05 12:28:00,59.0,28.5,29.53,North,0,0.0,0.0,31,0.00,,,0.00,WUHU216HW,2013-04-05 16:28:00,
2013-04-05 12:33:00,58.9,29.0,29.53,North,0,0.0,0.0,32,0.00,,,0.00,WUHU216HW,2013-04-05 16:33:00,
2013-04-05 12:38:00,59.4,28.7,29.52,North,0,0.0,0.0,31,0.00,,,0.00,WUHU216HW,2013-04-05 16:38:00,
2013-04-05 12:43:00,60.1,27.6,29.51,North,0,0.0,0.0,29,0.00,,,0.00,WUHU216HW,2013-04-05 16:43:00,
2013-04-05 12:48:00,60.1,28.6,29.52,North,0,0.0,0.0,30,0.00,,,0.00,WUHU216HW,2013-04-05 16:48:00,
2013-04-05 12:53:00,60.8,30.6,29.51,North,0,0.0,0.0,32,0.00,,,0.00,WUHU216HW,2013-04-05 16:53:00,
2013-04-05 12:58:00,61.7,29.0,29.51,North,0,0.0,0.0,29,0.00,,,0.00,WUHU216HW,2013-04-05 16:58:00,
2013-04-05 13:03:00,61.9,29.2,29.51,North,0,0.0,0.0,29,0.00,,,0.00,WUHU216HW,2013-04-05 17:03:00,
2013-04-05 13:09:00,61.6,27.9,29.51,North,0,0.0,0.0,28,0.00,,,0.00,WUHU216HW,2013-04-05 17:09:00,
2013-04-05 13:14:00,61.4,27.7,29.50,North,0,0.0,0.0,28,0.00,,,0.00,WUHU216HW,2013-04-05 17:14:00,
2013-04-05 13:19:00,61.7,29.0,29.50,North,0,0.0,0.0,29,0.00,,,0.00,WUHU216HW,2013-04-05 17:19:00,
2013-04-05 13:24:00,62.1,27.4,29.49,North,0,0.0,0.0,27,0.00,,,0.00,WUHU216HW,2013-04-05 17:24:00,
2013-04-05 13:29:00,62.5,28.7,29.49,North,0,0.0,0.0,28,0.00,,,0.00,WUHU216HW,2013-04-05 17:29:00,
2013-04-05 13:34:00,62.5,28.7,29.49,North,0,0.0,0.0,28,0.00,,,0.00,WUHU216HW,2013-04-05 17:34:00,
2013-04-05 13:39:00,62.5,28.7,29.49,North,0,0.0,0.0,28,0.00,,,0.00,WUHU216HW,2013-04-05 17:39:00,
2013-04-05 14:00:00,61.4,29.6,29.49,North,0,0.0,0.0,30,0.00,,,0.00,WUHU216HW,2013-04-05 18:00:00,
2013-04-05 14:05:00,61.6,29.8,29.49,North,0,0.0,0.0,30,0.00,,,0.00,WUHU216HW,2013-04-05 18:05:00,
2013-04-05 14:10:00,61.6,29.8,29.48,North,0,0.0,0.0,30,0.00,,,0.00,WUHU216HW,2013-04-05 18:10:00,
2013-04-05 14:15:00,61.4,28.7,29.48,North,0,0.0,0.0,29,0.00,,,0.00,WUHU216HW,2013-04-05 18:15:00,
2013-04-05 14:20:00,61.0,29.4,29.48,North,0,0.0,0.0,30,0.00,,,0.00,WUHU216HW,2013-04-05 18:20:00,
2013-04-05 14:25:00,61.4,29.6,29.48,North,0,0.0,0.0,30,0.00,,,0.00,WUHU216HW,2013-04-05 18:25:00,
2013-04-05 14:30:00,61.7,29.0,29.48,North,0,0.0,0.0,29,0.00,,,0.00,WUHU216HW,2013-04-05 18:30:00,
2013-04-05 14:35:00,61.4,29.6,29.48,North,0,0.0,0.0,30,0.00,,,0.00,WUHU216HW,2013-04-05 18:35:00,
2013-04-05 14:40:00,60.8,29.2,29.48,North,0,0.0,0.0,30,0.00,,,0.00,WUHU216HW,2013-04-05 18:40:00,
2013-04-05 14:45:00,60.7,28.1,29.48,North,0,0.0,0.0,29,0.00,,,0.00,WUHU216HW,2013-04-05 18:45:00,
2013-04-05 14:51:00,60.7,29.0,29.48,North,0,0.0,0.0,30,0.00,,,0.00,WUHU216HW,2013-04-05 18:51:00,
2013-04-05 14:56:00,60.3,27.8,29.48,North,0,0.0,0.0,29,0.00,,,0.00,WUHU216HW,2013-04-05 18:56:00,
2013-04-05 15:01:00,60.1,28.6,29.48,North,0,0.0,0.0,30,0.00,,,0.00,WUHU216HW,2013-04-05 19:01:00,
2013-04-05 15:06:00,59.8,27.4,29.48,North,0,0.0,0.0,29,0.00,,,0.00,WUHU216HW,2013-04-05 19:06:00,
2013-04-05 15:11:00,59.4,28.0,29.47,North,0,0.0,0.0,30,0.00,,,0.00,WUHU216HW,2013-04-05 19:11:00,
2013-04-05 15:17:00,59.9,28.4,29.47,North,0,0.0,0.0,30,0.00,,,0.00,WUHU216HW,2013-04-05 19:17:00,
2013-04-05 15:22:00,60.3,27.8,29.47,North,0,0.0,0.0,29,0.00,,,0.00,WUHU216HW,2013-04-05 19:22:00,
2013-04-05 15:27:00,60.1,27.6,29.47,North,0,0.0,0.0,29,0.00,,,0.00,WUHU216HW,2013-04-05 19:27:00,
2013-04-05 15:32:00,59.4,27.0,29.47,North,0,0.0,0.0,29,0.00,,,0.00,WUHU216HW,2013-04-05 19:32:00,
2013-04-05 15:37:00,59.4,27.0,29.47,North,0,0.0,0.0,29,0.00,,,0.00,WUHU216HW,2013-04-05 19:37:00,
2013-04-05 15:42:00,59.4,27.0,29.47,North,0,0.0,0.0,29,0.00,,,0.00,WUHU216HW,2013-04-05 19:42:00,
2013-04-05 16:00:00,58.3,25.1,29.47,North,0,0.0,0.0,28,0.00,,,0.00,WUHU216HW,2013-04-05 20:00:00,
2013-04-05 16:05:00,58.3,25.1,29.47,North,0,0.0,0.0,28,0.00,,,0.00,WUHU216HW,2013-04-05 20:05:00,
2013-04-05 16:10:00,58.1,25.0,29.46,North,0,0.0,0.0,28,0.00,,,0.00,WUHU216HW,2013-04-05 20:10:00,
2013-04-05 16:15:00,58.1,25.0,29.47,North,0,0.0,0.0,28,0.00,,,0.00,WUHU216HW,2013-04-05 20:15:00,
2013-04-05 16:20:00,58.1,25.9,29.46,North,0,0.0,0.0,29,0.00,,,0.00,WUHU216HW,2013-04-05 20:20:00,
2013-04-05 16:26:00,58.0,24.9,29.46,North,0,0.0,0.0,28,0.00,,,0.00,WUHU216HW,2013-04-05 20:26:00,
2013-04-05 16:31:00,58.0,25.8,29.47,North,0,0.0,0.0,29,0.00,,,0.00,WUHU216HW,2013-04-05 20:31:00,
2013-04-05 16:36:00,58.0,25.8,29.47,North,0,0.0,0.0,29,0.00,,,0.00,WUHU216HW,2013-04-05 20:36:00,
2013-04-05 16:41:00,57.6,25.5,29.47,North,0,0.0,0.0,29,0.00,,,0.00,WUHU216HW,2013-04-05 20:41:00,
2013-04-05 16:46:00,57.6,26.5,29.47,North,0,0.0,0.0,30,0.00,,,0.00,WUHU216HW,2013-04-05 20:46:00,
2013-04-05 16:51:00,56.7,24.7,29.47,North,0,0.0,0.0,29,0.00,,,0.00,WUHU216HW,2013-04-05 20:51:00,
2013-04-05 16:56:00,55.6,24.7,29.47,North,0,0.0,0.0,30,0.00,,,0.00,WUHU216HW,2013-04-05 20:56:00,
2013-04-05 17:02:00,55.4,25.2,29.47,North,0,0.0,0.0,31,0.00,,,0.00,WUHU216HW,2013-04-05 21:02:00,
2013-04-05 17:07:00,55.1,24.9,29.47,North,0,0.0,0.0,31,0.00,,,0.00,WUHU216HW,2013-04-05 21:07:00,
2013-04-05 17:12:00,54.5,24.5,29.47,North,0,0.0,0.0,31,0.00,,,0.00,WUHU216HW,2013-04-05 21:12:00,
2013-04-05 17:17:00,54.2,24.1,29.48,North,0,0.0,0.0,31,0.00,,,0.00,WUHU216HW,2013-04-05 21:17:00,
2013-04-05 17:22:00,53.6,23.8,29.48,North,0,0.0,0.0,31,0.00,,,0.00,WUHU216HW,2013-04-05 21:22:00,
2013-04-05 17:27:00,53.6,24.4,29.48,North,0,0.0,0.0,32,0.00,,,0.00,WUHU216HW,2013-04-05 21:27:00,
2013-04-05 17:32:00,54.0,24.7,29.48,North,0,0.0,0.0,32,0.00,,,0.00,WUHU216HW,2013-04-05 21:32:00,
2013-04-05 17:37:00,53.8,24.6,29.48,North,0,0.0,0.0,32,0.00,,,0.00,WUHU216HW,2013-04-05 21:37:00,
2013-04-05 18:00:00,52.6,24.9,29.50,North,0,0.0,0.0,34,0.00,,,0.00,WUHU216HW,2013-04-05 22:00:00,
2013-04-05 18:05:00,51.8,25.6,29.50,North,0,0.0,0.0,36,0.00,,,0.00,WUHU216HW,2013-04-05 22:05:00,
2013-04-05 18:10:00,51.3,25.0,29.51,North,0,0.0,0.0,36,0.00,,,0.00,WUHU216HW,2013-04-05 22:10:00,
2013-04-05 18:15:00,50.8,25.2,29.51,North,0,0.0,0.0,37,0.00,,,0.00,WUHU216HW,2013-04-05 22:15:00,
2013-04-05 18:20:00,50.4,24.9,29.51,North,0,0.0,0.0,37,0.00,,,0.00,WUHU216HW,2013-04-05 22:20:00,
2013-04-05 18:25:00,50.2,25.5,29.52,North,0,0.0,0.0,38,0.00,,,0.00,WUHU216HW,2013-04-05 22:25:00,
2013-04-05 18:30:00,50.0,25.3,29.52,North,0,0.0,0.0,38,0.00,,,0.00,WUHU216HW,2013-04-05 22:30:00,
2013-04-05 18:35:00,50.0,25.3,29.52,North,0,0.0,0.0,38,0.00,,,0.00,WUHU216HW,2013-04-05 22:35:00,
2013-04-05 18:40:00,50.0,25.3,29.52,North,0,0.0,0.0,38,0.00,,,0.00,WUHU216HW,2013-04-05 22:40:00,
2013-04-05 19:00:00,47.7,23.9,29.54,North,0,0.0,0.0,39,0.00,,,0.00,WUHU216HW,2013-04-05 23:00:00,
2013-04-05 19:05:00,47.3,23.6,29.55,North,0,0.0,0.0,39,0.00,,,0.00,WUHU216HW,2013-04-05 23:05:00,
2013-04-05 19:10:00,47.0,23.2,29.55,North,0,0.0,0.0,39,0.00,,,0.00,WUHU216HW,2013-04-05 23:10:00,
2013-04-05 19:15:00,46.6,22.9,29.55,North,0,0.0,0.0,39,0.00,,,0.00,WUHU216HW,2013-04-05 23:15:00,
2013-04-05 19:20:00,46.4,23.4,29.56,North,0,0.0,0.0,40,0.00,,,0.00,WUHU216HW,2013-04-05 23:20:00,
2013-04-05 19:25:00,46.1,23.0,29.56,North,0,0.0,0.0,40,0.00,,,0.00,WUHU216HW,2013-04-05 23:25:00,
2013-04-05 19:30:00,45.7,23.3,29.56,North,0,0.0,0.0,41,0.00,,,0.00,WUHU216HW,2013-04-05 23:30:00,
2013-04-05 19:35:00,45.5,23.7,29.57,North,0,0.0,0.0,42,0.00,,,0.00,WUHU216HW,2013-04-05 23:35:00,
2013-04-05 19:40:00,45.0,23.8,29.57,North,0,0.0,0.0,43,0.00,,,0.00,WUHU216HW,2013-04-05 23:40:00,
2013-04-05 19:45:00,44.8,24.7,29.58,North,0,0.0,0.0,45,0.00,,,0.00,WUHU216HW,2013-04-05 23:45:00,
2013-04-05 19:46:00,44.6,24.5,29.58,North,0,0.0,0.0,45,0.00,,,0.00,WUHU216HW,2013-04-05 23:46:00,
2013-04-05 19:50:00,44.6,24.5,29.58,North,0,0.0,0.0,45,0.00,,,0.00,WUHU216HW,2013-04-05 23:50:00,
2013-04-05 19:55:00,44.6,24.5,29.58,North,0,0.0,0.0,45,0.00,,,0.00,WUHU216HW,2013-04-05 23:55:00,
2013-04-05 20:00:00,43.7,24.8,29.59,North,0,0.0,0.0,47,0.00,,,0.00,WUHU216HW,2013-04-06 00:00:00,
2013-04-05 20:06:00,43.4,24.4,29.59,North,0,0.0,0.0,47,0.00,,,0.00,WUHU216HW,2013-04-06 00:06:00,
2013-04-05 20:11:00,43.2,25.4,29.60,North,0,0.0,0.0,49,0.00,,,0.00,WUHU216HW,2013-04-06 00:11:00,
2013-04-05 20:16:00,42.8,25.6,29.61,North,0,0.0,0.0,50,0.00,,,0.00,WUHU216HW,2013-04-06 00:16:00,
2013-04-05 20:21:00,42.7,26.6,29.61,North,0,0.0,0.0,53,0.00,,,0.00,WUHU216HW,2013-04-06 00:21:00,
2013-04-05 20:26:00,42.5,26.1,29.61,North,0,0.0,0.0,52,0.00,,,0.00,WUHU216HW,2013-04-06 00:26:00,
2013-04-05 20:31:00,42.3,25.5,29.62,North,0,0.0,0.0,51,0.00,,,0.00,WUHU216HW,2013-04-06 00:31:00,
2013-04-05 20:36:00,42.1,25.8,29.62,North,0,0.0,0.0,52,0.00,,,0.00,WUHU216HW,2013-04-06 00:36:00,
2013-04-05 20:42:00,42.1,25.8,29.62,North,0,0.0,0.0,52,0.00,,,0.00,WUHU216HW,2013-04-06 00:42:00,
2013-04-05 21:00:00,41.2,26.2,29.64,North,0,0.0,0.0,55,0.00,,,0.00,WUHU216HW,2013-04-06 01:00:00,
2013-04-05 21:05:00,41.0,26.5,29.64,North,0,0.0,0.0,56,0.00,,,0.00,WUHU216HW,2013-04-06 01:05:00,
2013-04-05 21:10:00,40.7,26.6,29.64,North,0,0.0,0.0,57,0.00,,,0.00,WUHU216HW,2013-04-06 01:10:00,
2013-04-05 21:15:00,40.5,26.8,29.65,North,0,0.0,0.0,58,0.00,,,0.00,WUHU216HW,2013-04-06 01:15:00,
2013-04-05 21:20:00,40.1,26.5,29.65,North,0,0.0,0.0,58,0.00,,,0.00,WUHU216HW,2013-04-06 01:20:00,
2013-04-05 21:25:00,40.0,26.7,29.66,North,0,0.0,0.0,59,0.00,,,0.00,WUHU216HW,2013-04-06 01:25:00,
2013-04-05 21:30:00,40.0,26.7,29.66,North,0,0.0,0.0,59,0.00,,,0.00,WUHU216HW,2013-04-06 01:30:00,
2013-04-05 21:35:00,39.8,27.4,29.66,North,0,0.0,0.0,61,0.00,,,0.00,WUHU216HW,2013-04-06 01:35:00,
2013-04-05 21:41:00,39.4,27.4,29.66,North,0,0.0,0.0,62,0.00,,,0.00,WUHU216HW,2013-04-06 01:41:00,
2013-04-05 21:46:00,39.1,26.6,29.66,North,0,0.0,0.0,61,0.00,,,0.00,WUHU216HW,2013-04-06 01:46:00,
2013-04-05 21:51:00,38.9,26.1,29.66,North,0,0.0,0.0,60,0.00,,,0.00,WUHU216HW,2013-04-06 01:51:00,
2013-04-05 21:56:00,38.5,25.8,29.66,North,0,0.0,0.0,60,0.00,,,0.00,WUHU216HW,2013-04-06 01:56:00,
2013-04-05 22:01:00,38.5,25.8,29.66,North,0,0.0,0.0,60,0.00,,,0.00,WUHU216HW,2013-04-06 02:01:00,
2013-04-05 22:06:00,38.2,25.8,29.66,North,0,0.0,0.0,61,0.00,,,0.00,WUHU216HW,2013-04-06 02:06:00,
2013-04-05 22:11:00,38.0,25.3,29.66,North,0,0.0,0.0,60,0.00,,,0.00,WUHU216HW,2013-04-06 02:11:00,
2013-04-05 22:17:00,37.8,25.6,29.66,North,0,0.0,0.0,61,0.00,,,0.00,WUHU216HW,2013-04-06 02:17:00,
2013-04-05 22:22:00,37.6,25.0,29.66,North,0,0.0,0.0,60,0.00,,,0.00,WUHU216HW,2013-04-06 02:22:00,
2013-04-05 22:27:00,37.4,24.8,29.66,North,0,0.0,0.0,60,0.00,,,0.00,WUHU216HW,2013-04-06 02:27:00,
2013-04-05 22:32:00,37.4,24.8,29.66,North,0,0.0,0.0,60,0.00,,,0.00,WUHU216HW,2013-04-06 02:32:00,
2013-04-05 22:37:00,37.3,24.7,29.65,North,0,0.0,0.0,60,0.00,,,0.00,WUHU216HW,2013-04-06 02:37:00,
2013-04-05 23:00:00,36.7,24.9,29.66,North,0,0.0,0.0,62,0.00,,,0.00,WUHU216HW,2013-04-06 03:00:00,
2013-04-05 23:05:00,36.7,24.9,29.66,North,0,0.0,0.0,62,0.00,,,0.00,WUHU216HW,2013-04-06 03:05:00,
2013-04-05 23:10:00,36.7,24.9,29.66,North,0,0.0,0.0,62,0.00,,,0.00,WUHU216HW,2013-04-06 03:10:00,
2013-04-05 23:15:00,36.7,24.6,29.67,North,0,0.0,0.0,61,0.00,,,0.00,WUHU216HW,2013-04-06 03:15:00,
2013-04-05 23:20:00,36.9,25.1,29.67,North,0,0.0,0.0,62,0.00,,,0.00,WUHU216HW,2013-04-06 03:20:00,
2013-04-05 23:25:00,36.9,25.1,29.67,North,0,0.0,0.0,62,0.00,,,0.00,WUHU216HW,2013-04-06 03:25:00,
2013-04-05 23:30:00,36.9,24.8,29.67,North,0,0.0,0.0,61,0.00,,,0.00,WUHU216HW,2013-04-06 03:30:00,
2013-04-05 23:36:00,36.9,24.4,29.68,North,0,0.0,0.0,60,0.00,,,0.00,WUHU216HW,2013-04-06 03:36:00,
2013-04-05 23:41:00,36.7,24.2,29.67,North,0,0.0,0.0,60,0.00,,,0.00,WUHU216HW,2013-04-06 03:41:00,
2013-04-05 23:46:00,36.5,23.6,29.68,North,0,0.0,0.0,59,0.00,,,0.00,WUHU216HW,2013-04-06 03:46:00,
2013-04-05 23:51:00,36.4,23.4,29.67,North,0,0.0,0.0,59,0.00,,,0.00,WUHU216HW,2013-04-06 03:51:00,
2013-04-05 23:56:00,36.2,22.9,29.68,North,0,0.0,0.0,58,0.00,,,0.00,WUHU216HW,2013-04-06 03:56:00,